Terminal Aerodrome Forecast
Issued by NWS

Home | Current Version | Previous Version | Text Only | Print | Product List | Glossary On
Versions: 1 2 3 4 5 6 7 8 9 10 11 12 13 14
000
FTUS45 KRIW 310704 AAA
TAFRKS
TAF AMD
KRKS 310704Z 3107/0106 15011KT P6SM VCSH BKN090
     FM311000 19006KT P6SM FEW120
     FM312100 26013G21KT P6SM VCTS SCT080CB
     FM010200 23009KT P6SM SCT100=

USA.gov is the U.S. government's official web portal to all federal, state and local government web resources and services.